CAPE
0 0 0 0 0 0 0 0 0 0 0 0 1 1 2 0 0 0 0 0 0 0 0 0 0 0 0 0 0 0 0 0 0 0 0 0 0 0 0 0 0 0 0 0
0 0 0 0 0 0 0 0 0 1 0 1 1 1 0 0 0 0 0 0 0 0 0 0 0 0 0 0 0 0 0 0 0 0 0 0 0 0 0 0 0 0 0 0
0 0 1 0 0 0 0 0 0 0 0 1 0 1 2 0 0 0 0 0 0 0 0 0 0 0 0 0 0 0 0 0 0 0 0 0 0 0 0 0 0 0 0 0
0 0 0 0 0 0 0 0 0 0 0 0 0 0 0 0 0 0 0 0 0 0 0 0 0 0 0 0 0 0 0 0 0 0 0 0 0 0 0 0 0 0 0 0
0 0 0 0 0 0 0 0 0 0 0 0 0 0 1 0 0 0 0 0 0 0 0 0 0 0 0 0 0 0 0 0 0 0 0 0 0 0 0 0 0 0 0 0
0 0 0 0 0 0 0 0 0 0 0 2 0 0 0 0 0 0 0 0 0 0 0 0 0 0 0 0 0 0 0 0 0 0 0 0 0 0 0 0 0 0 0 0
0 0 0 0 0 0 0 0 0 0 0 0 0 0 0 0 0 0 0 0 0 0 0 0 0 0 0 0 0 0 0 0 0 0 0 0 0 0 0 0 0 0 0 0
0 0 0 0 0 0 0 0 0 0 0 0 0 0 0 0 0 0 0 0 0 0 0 0 0 0 0 0 0 0 0 0 0 0 0 0 0 0 0 0 0 0 0 0
0 0 0 0 0 0 0 0 0 0 0 0 0 0 0 0 0 0 0 0 0 0 0 0 0 0 0 0 0 0 0 1 0 0 0 0 0 0 0 0 0 0 0 0
0 0 0 0 0 0 0 0 0 0 0 0 0 0 0 0 0 0 0 0 0 0 0 0 0 0 0 0 0 0 0 0 0 0 0 0 0 0 0 0 0 0 0 0
0 0 0 0 0 0 0 0 0 0 0 0 0 0 0 0 0 0 0 0 0 0 0 0 0 0 0 0 0 0 0 0 0 0 0 0 0 0 0 0 0 0 0 0
0 0 0 0 0 0 0 0 0 0 0 0 0 0 0 0 0 0 0 0 0 0 0 0 0 0 0 0 0 0 0 0 0 0 0 0 0 0 0 0 0 0 0 0
0 0 0 0 0 0 0 0 0 0 0 0 0 0 0 0 0 1 0 0 0 0 0 0 0 0 0 0 0 0 0 0 0 0 0 0 0 0 0 1 7 2 2 1
0 0 0 0 0 0 0 0 0 0 0 0 0 0 0 0 0 0 0 0 0 0 0 0 0 0 0 0 0 0 0 2 0 0 0 0 0 0 0 0 1 2 14 7
0 0 0 0 0 0 0 0 0 0 0 0 0 0 0 0 0 0 0 0 0 0 0 0 0 0 0 0 0 0 0 0 0 0 0 0 0 0 0 0 0 0 0 15
0 0 0 0 0 0 0 0 0 0 0 0 0 0 0 0 0 0 0 0 0 0 0 0 0 0 0 0 0 0 0 2 2 0 0 0 0 0 0 0 0 0 0 1
0 0 0 0 0 0 0 0 0 0 0 0 0 0 0 0 0 0 0 0 0 0 0 0 0 0 0 0 0 0 0 1 3 0 0 1 0 1 0 0 0 0 0 0
0 0 0 0 0 0 0 0 0 0 0 0 0 0 0 0 0 0 0 0 0 0 0 0 0 1 0 0 0 0 0 0 0 0 0 0 0 0 0 0 0 0 0 3
0 0 0 0 0 0 0 0 0 0 0 0 0 0 0 0 0 0 0 0 0 0 0 0 14 0 0 1 0 0 0 0 0 0 0 0 0 0 0 0 0 0 0 0
0 0 0 0 0 0 0 0 0 0 0 0 0 0 0 0 0 0 0 0 0 0 0 0 0 0 0 0 3 0 0 0 0 0 0 0 0 0 0 0 0 0 0 0
0 0 0 0 0 0 0 0 0 0 0 0 0 0 0 0 0 0 0 0 0 0 1 0 1 0 0 0 0 0 0 0 0 0 0 0 0 0 0 0 0 0 0 0
0 0 0 0 0 0 0 0 0 0 0 0 0 0 0 0 0 0 0 0 0 19 0 0 0 11 3 1 0 0 0 0 0 0 0 0 0 0 0 0 0 0 0 0
0 0 0 0 0 0 0 0 0 0 0 0 0 0 0 0 0 0 0 0 0 6 0 0 16 14 6 0 0 0 0 0 0 0 0 0 0 0 0 0 0 0 0 0
0 0 0 0 0 0 0 0 0 0 0 0 0 0 0 0 0 0 0 0 10 3 0 1 7 11 3 0 0 0 0 0 0 0 0 1 0 0 0 0 0 0 0 0
0 0 0 0 0 0 0 0 0 0 0 0 0 0 0 0 0 0 0 0 2 1 0 2 11 5 0 0 0 0 0 0 0 0 0 0 0 0 0 0 0 0 0 0
0 0 0 0 0 0 0 0 0 0 0 0 0 0 0 0 0 0 0 1 0 0 0 0 0 0 0 0 0 0 0 0 0 0 0 0 0 0 0 0 0 0 0 0
0 4 0 0 0 0 0 0 0 0 0 0 0 0 0 0 0 0 0 0 0 0 0 0 0 0 0 0 0 0 0 0 0 0 0 0 0 0 0 0 0 0 0 0
CIN
0 0 0 0 0 0 0 0 0 0 0 0 0 0 0 0 0 0 0 0 0 0 0 0 0 0 0 0 0 0 0 0 0 0 0 0 0 0 0 0 0 0 0 0
0 -0 0 0 0 0 0 0 0 0 0 0 0 0 0 0 0 0 0 0 0 0 0 0 0 0 0 0 0 0 0 0 0 0 0 0 0 0 0 0 0 0 0 0
0 0 0 0 0 0 0 0 0 0 0 0 0 0 0 0 0 0 0 0 0 0 0 0 0 0 0 0 0 0 0 0 0 0 0 0 0 0 0 0 0 0 0 0
0 0 0 0 0 0 0 0 0 0 0 0 0 -0 0 0 0 0 0 0 0 0 0 0 0 0 0 0 0 0 0 0 0 0 0 0 0 0 0 0 0 0 0 0
0 0 0 0 0 0 0 0 0 -0 0 0 0 0 0 0 0 0 0 0 0 0 0 0 0 0 0 0 0 0 0 0 0 0 0 0 0 0 0 0 0 0 0 0
0 0 0 0 0 0 0 0 0 0 0 0 0 0 0 0 0 0 0 0 0 0 0 0 0 0 0 0 0 0 0 0 0 0 0 0 0 0 0 0 0 0 0 0
0 0 0 0 0 0 0 0 0 0 0 0 0 0 0 0 0 0 0 0 0 0 0 0 0 0 0 0 0 0 0 0 0 0 0 0 0 0 0 0 0 0 0 0
0 0 0 0 0 0 0 0 0 0 0 0 -0 0 0 0 0 0 0 0 0 0 0 0 0 0 0 0 0 0 0 0 0 0 0 0 0 0 0 0 0 0 0 0
0 0 0 0 0 0 0 0 0 0 0 0 0 0 0 0 0 0 0 0 0 0 0 0 0 0 0 0 0 0 0 0 0 0 0 0 0 0 0 0 0 0 0 0
0 0 0 0 0 0 0 0 0 0 0 -0 0 0 0 0 0 0 0 0 0 0 0 0 0 0 0 0 0 -0 -0 -0 -0 0 0 0 0 0 0 0 0 0 0 0
0 0 0 0 0 0 0 0 0 0 0 0 0 0 0 0 0 0 0 0 0 0 0 0 0 0 0 0 0 0 -0 0 -0 0 0 0 0 0 0 0 0 0 0 0
0 0 -0 0 0 0 0 0 0 0 0 0 0 0 0 0 0 0 0 0 0 0 0 0 0 0 0 0 0 0 0 0 0 0 0 0 0 0 0 0 0 0 0 0
0 0 0 0 0 0 0 0 0 0 0 0 0 0 0 0 0 0 0 0 0 0 0 0 0 0 0 0 0 0 0 0 0 -0 0 0 0 0 0 -0 0 0 0 0
0 0 0 0 0 0 -0 0 0 0 0 0 0 0 0 0 0 0 0 0 0 0 0 0 0 0 0 0 0 0 0 0 0 0 0 0 0 0 0 0 0 0 0 -0
0 0 0 -0 0 0 0 0 0 0 0 0 0 0 0 0 0 0 0 0 0 0 0 0 0 0 0 0 0 0 0 0 0 0 0 0 0 0 0 0 0 0 0 0
0 0 0 0 0 0 0 0 0 0 0 0 0 0 0 0 0 0 0 0 0 0 0 0 0 0 0 0 0 0 0 0 0 0 0 0 0 0 0 0 0 0 0 -0
0 0 0 0 0 0 0 0 0 0 0 0 0 0 0 0 0 0 0 0 0 0 0 0 0 0 0 0 0 0 0 0 -0 0 0 -0 0 -0 0 0 0 0 0 0
0 0 0 0 0 0 0 0 0 0 0 0 0 0 0 0 0 0 0 0 0 0 0 0 0 -1 0 0 0 0 0 0 0 0 0 0 0 0 0 0 0 0 0 -0
0 0 0 0 0 0 0 0 0 0 0 0 0 0 0 0 0 0 0 0 0 0 0 0 0 0 0 0 0 0 0 0 0 0 0 -0 0 0 0 0 0 0 0 0
0 0 0 0 0 0 0 0 0 0 0 0 0 0 0 0 0 0 0 0 0 0 -0 0 0 0 0 -0 0 0 0 0 0 0 0 0 0 0 0 0 0 0 0 0
0 0 0 0 0 0 0 0 0 0 0 0 0 0 0 0 0 0 0 0 0 0 0 0 0 -1 0 0 0 0 0 0 0 0 0 0 0 0 0 0 0 0 0 0
0 0 0 0 0 0 0 0 0 0 0 0 0 0 0 0 0 0 0 0 0 0 0 0 -2 -0 -0 0 0 0 0 0 0 0 0 0 0 0 0 0 0 0 0 0
0 0 0 0 0 0 0 0 0 0 0 0 0 0 0 0 0 0 0 0 0 -1 0 0 -0 0 0 0 0 0 0 0 0 0 0 0 0 0 0 0 0 0 0 0
0 0 0 0 0 0 0 0 0 0 0 0 0 0 0 0 0 0 0 0 -0 0 0 -0 -0 0 0 0 0 0 0 0 0 0 0 0 0 0 0 0 0 0 0 0
0 0 0 0 0 0 0 0 0 0 0 0 0 0 0 0 0 0 0 0 0 0 0 0 0 0 0 0 0 0 0 0 0 0 0 0 0 0 0 0 0 0 0 0
0 0 0 0 0 0 0 0 0 0 0 0 0 0 0 0 0 0 0 -0 0 -0 0 0 0 0 0 0 0 0 0 0 0 0 0 0 0 0 0 0 0 0 0 0
0 0 0 0 0 0 0 0 0 0 0 0 0 0 0 0 0 0 0 0 0 0 0 0 0 0 0 0 0 0 0 0 0 0 0 0 0 0 0 0 0 0 0 0
Wind_Speed
9 10 9 15 15 19 21 13 6 6 8 13 13 13 11 10 12 14 15 15 15 14 13 13 14 13 13 12 12 13 12 9 6 12 14 14 14 14 14 14 13 13 13 13
7 7 6 9 17 14 15 15 12 7 6 9 10 10 6 11 15 15 16 16 16 15 15 14 14 14 14 13 13 12 11 10 9 5 12 12 12 13 11 12 12 12 13 13
1 5 7 6 12 8 5 10 4 8 6 13 13 11 8 9 14 15 15 16 16 14 14 14 13 13 13 13 13 12 11 10 9 8 8 11 12 13 13 13 12 13 12 12
2 4 5 4 4 5 9 4 5 3 8 11 13 12 8 8 14 15 16 16 15 12 13 13 13 12 12 11 11 10 10 10 9 9 5 6 13 14 13 12 14 12 12 13
4 3 2 3 3 2 3 1 8 10 11 13 18 8 9 14 15 15 15 13 12 11 12 12 11 12 12 11 10 9 9 10 10 10 7 3 7 11 10 11 10 10 10 12
5 5 3 6 7 3 2 0 9 10 14 14 15 5 1 17 17 17 15 14 14 14 13 12 12 12 11 9 10 10 10 10 10 9 7 5 5 7 8 8 9 7 8 10
3 2 3 3 8 2 5 4 9 8 9 12 8 5 15 16 16 14 14 15 15 13 11 12 11 11 10 10 8 9 11 10 10 8 6 5 3 4 5 7 6 7 7 5
1 5 4 11 2 7 5 5 4 5 5 9 11 13 13 14 15 16 16 15 13 11 11 12 11 9 10 10 10 9 10 10 9 8 4 3 4 4 6 6 7 6 7 5
4 4 3 4 4 1 2 5 6 7 8 8 11 12 13 13 14 15 15 13 11 10 12 11 11 9 11 11 11 10 10 10 9 7 4 3 4 5 6 6 6 6 6 6
2 1 3 1 2 3 2 4 7 8 10 10 10 11 12 10 11 11 12 13 12 11 10 11 10 11 9 11 9 9 10 9 8 5 2 1 1 3 4 6 6 6 6 6
2 5 3 4 4 4 8 6 8 8 8 10 11 11 9 11 11 11 11 10 9 9 9 11 10 10 9 9 9 8 8 7 6 4 2 1 1 3 4 4 8 9 8 8
3 7 5 6 6 7 9 8 10 10 10 9 7 11 13 12 10 11 10 11 11 10 9 9 8 8 8 6 6 6 6 4 3 2 1 3 3 2 6 6 9 11 11 9
4 10 10 5 8 8 7 9 10 6 8 10 9 9 11 11 10 15 11 11 12 13 12 11 10 10 9 7 6 7 5 4 3 3 2 3 4 4 4 3 9 11 14 16
11 9 4 6 6 9 8 9 10 8 6 6 8 9 9 10 12 11 11 11 11 12 10 10 11 11 11 9 8 9 5 11 3 2 2 3 4 4 3 5 5 4 11 12
13 10 7 8 7 7 6 7 9 8 9 9 6 6 6 10 11 12 12 11 11 9 9 10 10 12 9 10 9 10 6 3 3 1 1 4 3 4 4 4 4 4 2 9
13 10 9 7 8 9 8 8 7 9 8 8 8 9 9 9 10 9 9 10 9 10 11 11 11 11 8 6 7 7 6 11 5 1 2 2 4 4 4 4 5 5 4 5
9 12 13 12 10 10 8 8 7 8 8 8 9 9 9 9 8 9 11 11 10 10 9 11 12 11 10 6 5 4 4 4 8 3 3 2 3 4 4 4 4 4 4 9
8 9 9 9 9 9 9 8 8 8 8 10 9 8 7 7 8 9 10 10 11 11 9 13 11 11 11 11 3 3 3 3 3 1 2 4 5 6 7 8 8 10 9 14
10 11 11 11 10 9 8 8 7 8 8 8 8 8 7 6 7 8 10 8 11 12 13 14 20 13 10 13 7 3 3 2 2 2 3 9 6 7 9 9 10 10 10 10
12 12 12 12 11 8 9 8 8 7 6 7 8 8 8 8 9 9 8 7 9 9 12 14 14 8 10 9 10 5 4 5 5 5 5 7 8 9 9 14 12 10 10 10
11 12 12 12 12 11 8 8 7 7 7 7 7 8 8 8 7 9 8 8 13 14 15 19 12 7 6 7 7 5 5 6 6 5 6 7 9 9 10 10 10 10 11 11
10 11 12 12 10 10 9 8 7 6 6 6 7 7 8 8 9 9 7 6 9 20 11 10 8 14 8 12 6 6 6 6 5 5 6 7 8 9 9 9 10 10 10 10
10 10 11 10 11 10 9 8 7 7 6 7 7 8 7 6 6 7 9 11 10 14 9 9 17 17 15 7 6 6 6 7 6 6 6 7 8 8 8 9 9 9 8 8
10 10 10 10 9 7 9 9 8 7 6 6 6 6 6 6 6 3 7 12 18 15 11 13 15 18 14 6 6 6 6 6 6 7 7 12 8 8 8 8 8 7 7 9
9 10 9 7 8 7 9 9 5 7 8 7 6 6 7 5 3 5 6 5 15 11 8 16 19 18 8 7 7 6 6 6 6 7 7 8 8 8 8 8 7 7 6 6
8 7 6 5 5 6 6 6 4 6 7 7 5 5 6 6 6 5 4 10 7 11 7 7 7 7 7 7 7 7 7 7 7 7 8 8 8 7 7 7 7 6 5 4
6 10 4 6 5 7 6 7 7 7 8 6 4 4 5 6 7 7 9 6 6 6 6 6 7 8 6 7 7 7 7 6 10 7 7 7 6 6 6 5 4 4 3 3
Wind_Direction
139 156 75 48 21 16 36 5 54 81 74 6 356 346 354 3 2 14 6 9 13 7 1 355 353 358 351 350 347 347 340 347 323 176 176 178 174 177 180 186 186 188 189 191
207 219 87 61 36 31 36 13 36 53 73 8 339 339 38 10 11 8 3 1 3 357 355 351 349 347 344 344 341 338 337 337 334 217 170 179 172 174 178 184 184 184 189 187
202 259 284 5 5 44 74 34 352 29 318 335 339 343 346 9 9 357 350 354 354 347 345 336 340 339 339 334 329 338 335 332 343 331 194 174 168 178 182 183 181 190 190 188
249 18 47 264 42 98 115 58 35 344 342 337 319 305 274 33 2 347 342 344 340 335 335 330 329 331 329 328 333 337 332 339 345 348 330 174 168 178 180 184 185 188 189 191
84 79 256 342 349 2 10 45 21 348 349 346 336 327 88 18 350 334 332 329 325 326 321 322 325 330 326 330 336 336 342 343 339 341 330 224 183 178 176 174 181 182 185 188
24 89 153 220 280 258 209 236 10 357 349 346 355 35 337 340 331 325 328 331 330 325 326 325 328 328 321 328 335 340 336 328 324 323 314 273 192 176 162 182 179 171 178 189
7 81 313 317 298 281 65 278 345 342 335 339 347 310 303 316 323 324 325 324 323 325 321 317 320 317 319 323 332 330 321 317 317 316 306 281 192 128 163 148 146 156 160 160
47 53 329 349 18 83 244 313 292 326 314 319 317 316 315 318 320 323 323 323 320 318 317 314 317 320 321 321 320 322 319 316 312 309 307 267 168 130 134 142 152 147 138 143
141 224 238 336 96 222 248 289 323 319 323 318 311 316 318 318 318 319 317 314 315 316 312 316 317 319 319 316 321 321 320 312 308 307 299 226 158 158 144 150 159 160 165 164
193 110 124 109 72 18 278 274 304 306 317 320 315 314 312 315 314 314 314 318 320 317 312 309 314 318 310 311 315 316 317 309 300 290 277 152 117 162 166 163 161 166 166 166
108 47 254 188 51 341 339 330 328 326 318 320 320 316 316 315 315 313 307 306 309 305 305 307 314 315 311 314 317 314 304 291 294 278 195 146 133 178 206 205 185 175 181 174
330 9 303 296 350 349 338 333 331 323 329 324 320 314 320 316 316 312 316 323 322 321 315 311 316 307 301 297 275 281 298 299 286 276 190 144 124 110 229 203 197 195 174 168
333 315 294 302 314 360 327 326 317 333 319 317 316 316 317 312 313 328 323 323 331 324 323 322 322 318 310 314 312 317 310 304 285 264 192 165 156 168 164 202 195 194 187 186
350 333 346 1 319 320 321 320 320 305 295 294 298 315 313 311 314 320 325 320 317 320 317 323 323 314 315 312 324 330 307 299 276 210 187 179 173 173 166 176 180 179 202 194
341 332 322 317 320 321 320 322 329 330 327 324 317 292 308 320 320 313 309 313 314 311 316 326 325 320 315 324 328 322 313 283 255 193 175 201 183 167 169 174 163 152 159 190
328 333 341 341 335 333 329 331 330 326 324 318 318 322 315 307 301 296 306 317 330 329 321 323 325 320 318 304 304 309 310 291 259 222 204 213 185 178 164 167 157 163 178 174
342 344 340 339 337 335 328 318 315 317 314 317 318 314 315 320 314 334 336 336 336 328 321 331 320 320 326 311 315 307 307 265 246 207 198 195 186 186 144 130 117 92 78 105
324 317 323 320 320 321 325 321 319 321 324 317 319 321 324 336 327 323 328 322 339 342 348 339 326 345 330 326 320 324 331 11 32 49 84 105 121 124 116 114 113 110 110 112
332 326 325 326 322 317 315 315 316 314 319 324 330 333 323 323 338 330 331 336 348 342 347 336 347 346 334 333 10 348 340 23 39 44 100 109 103 97 99 98 97 94 97 100
336 338 334 328 327 325 319 319 318 316 319 330 330 339 340 342 343 336 334 335 333 321 340 333 342 340 335 342 19 1 17 53 62 64 75 87 93 96 97 100 102 98 99 97
337 332 329 330 324 321 324 322 325 329 329 342 344 340 331 324 332 338 344 346 332 330 352 341 335 346 339 11 20 21 30 49 57 66 83 89 94 89 89 91 94 97 96 94
333 328 324 323 322 319 327 325 332 332 344 346 347 342 339 337 339 343 338 332 323 343 349 332 335 7 14 25 15 28 40 55 66 75 83 88 94 97 96 96 97 98 99 101
323 320 317 319 321 318 317 331 337 343 344 349 344 342 337 325 328 340 339 335 333 353 350 324 4 18 26 13 15 35 46 54 63 70 78 84 89 92 97 100 97 100 102 104
319 318 312 310 315 328 338 330 331 339 333 332 334 329 329 332 325 305 324 335 337 11 354 346 15 25 31 12 21 35 41 52 64 72 82 83 81 85 84 88 91 93 96 95
313 307 309 327 335 333 323 324 342 348 340 344 331 335 331 325 310 312 334 332 349 11 353 351 18 25 17 19 21 33 54 61 60 69 71 73 76 79 83 84 82 87 84 83
310 306 298 309 314 326 326 336 5 344 338 337 332 333 331 330 327 351 334 360 356 4 355 347 359 25 14 26 29 34 42 49 56 67 69 70 73 73 74 75 79 81 81 85
303 332 336 332 328 331 328 357 351 336 327 319 303 309 328 335 337 1 1 355 356 356 359 360 354 23 25 33 28 31 34 55 76 65 60 66 68 70 72 74 80 88 94 99